Weather History for PHTO - September, 2012

Change the Weather History Date:

Thursday, September 27, 2012

  Actual Average Record
Temperature  
Mean Temperature 77 °F 76 °F  
Max Temperature 83 °F 83 °F 89 °F (1974)
Min Temperature 70 °F 69 °F 65 °F (1971)
Degree Days  
Heating Degree Days 0 0  
Month to date heating degree days 0 0  
Since 1 July heating degree days 0 0  
Cooling Degree Days 12 11  
Month to date cooling degree days 286 297  
Year to date cooling degree days 2321 2369  
Growing Degree Days 26 (Base 50)    
Moisture  
Dew Point 69 °F    
Average Humidity 81    
Maximum Humidity 100    
Minimum Humidity 62    
Precipitation  
Precipitation 0.65 in 0.35 in 5.80 in (1960)
Month to date precipitation 4.71 8.93  
Year to date precipitation 70.30 88.87  
Snow  
Snow 0.00 in - - ()
Month to date snowfall 0.0  
Since 1 July snowfall 0.0  
Since 1 September snowfall 0.0  
Snow Depth 0.00 in    
Sea Level Pressure  
Sea Level Pressure 30.04 in    
Wind  
Wind Speed 6 mph (WNW)    
Max Wind Speed 12 mph    
Max Gust Speed 16 mph    
Visibility 8 miles    
Events Rain    
T = Trace of Precipitation, MM = Missing Value Source: NWS Daily Summary

Daily Weather History Graph

Daily Weather History Graph

Search for Another Location

Airport or City:

Trip Planner

Search our weather history database for the weather conditions in past years. The results will help you decide how hot, cold, wet, or windy it might be!

Date:

Astronomy

Sep. 27, 2012 Rise Set
Actual Time 6:10 AM HST 6:11 PM HST
Civil Twilight 5:48 AM HST 6:33 PM HST
Nautical Twilight 5:22 AM HST 6:58 PM HST
Astronomical Twilight 4:57 AM HST 7:24 PM HST
Moon 4:39 PM HST (9/27) 4:04 AM HST (9/27)
Length of Visible Light 12h 44m
Length of Day
12h 01m
Waxing Gibbous, 95% of the Moon is Illuminated
Sep 27
Waxing Gibbous
Sep 29
Full
Oct 7
Last Quarter
Oct 15
New
Oct 21
First Quarter

Hourly Weather History & Observations

Time (HST) Temp. Heat Index Dew Point Humidity Pressure Visibility Wind Dir Wind Speed Gust Speed Precip Events Conditions
12:04 AM 71.6 °F - 69.8 °F 94% 30.06 in 10.0 mi West 5.8 mph - 0.00 in Rain Light Rain
12:19 AM 71.6 °F - 69.8 °F 94% 30.06 in 2.0 mi West 5.8 mph - 0.05 in Rain Rain
12:27 AM 71.6 °F - 69.8 °F 94% 30.06 in 1.8 mi West 6.9 mph - 0.09 in Rain Heavy Rain
12:33 AM 71.6 °F - 69.8 °F 94% 30.06 in 2.5 mi WSW 3.5 mph - 0.13 in Rain Rain
12:53 AM 71.1 °F - 70.0 °F 96% 30.05 in 2.5 mi Variable 4.6 mph - 0.25 in Rain Rain
1:00 AM 71.6 °F - 69.8 °F 94% 30.05 in 2.0 mi South 4.6 mph - 0.02 in Rain Heavy Rain
1:18 AM 71.6 °F - 69.8 °F 94% 30.04 in 5.0 mi WSW 6.9 mph - 0.13 in Rain Light Rain
1:39 AM 71.6 °F - 69.8 °F 94% 30.05 in 1.8 mi SE 5.8 mph - 0.22 in Rain Heavy Rain
1:45 AM 71.6 °F - 69.8 °F 94% 30.04 in 3.0 mi South 3.5 mph - 0.28 in Rain Rain
1:53 AM 70.0 °F - 68.0 °F 93% 30.04 in 8.0 mi South 3.5 mph - 0.29 in Rain Light Rain
2:53 AM 70.0 °F - 69.1 °F 97% 30.02 in 10.0 mi WSW 4.6 mph - 0.01 in   Overcast
3:53 AM 71.1 °F - 68.0 °F 90% 30.01 in 10.0 mi West 4.6 mph - 0.00 in   Overcast
4:26 AM 71.6 °F - 69.8 °F 94% 30.02 in 8.0 mi NNW 6.9 mph - 0.00 in Rain Light Rain
4:36 AM 71.6 °F - 69.8 °F 94% 30.02 in 2.5 mi NE 3.5 mph - 0.00 in Rain Rain
4:53 AM 71.1 °F - 69.1 °F 93% 30.03 in 3.0 mi Calm Calm - 0.07 in Rain Light Rain
5:13 AM 71.6 °F - 69.8 °F 94% 30.02 in 10.0 mi WSW 8.1 mph - 0.00 in   Overcast
5:41 AM 71.6 °F - 69.8 °F 94% 30.04 in 10.0 mi West 3.5 mph - 0.01 in   Overcast
5:53 AM 71.1 °F - 69.1 °F 93% 30.04 in 10.0 mi WNW 4.6 mph - 0.01 in Rain Light Rain
6:07 AM 71.6 °F - 69.8 °F 94% 30.04 in 10.0 mi West 8.1 mph - 0.00 in Rain Light Rain
6:53 AM 71.1 °F - 68.0 °F 90% 30.04 in 10.0 mi WSW 5.8 mph - 0.00 in Rain Light Rain
7:19 AM 71.6 °F - 68.0 °F 88% 30.05 in 10.0 mi WSW 4.6 mph - 0.00 in   Overcast
7:32 AM 71.6 °F - 69.8 °F 94% 30.05 in 10.0 mi West 5.8 mph - 0.00 in   Overcast
7:53 AM 72.0 °F - 69.1 °F 91% 30.05 in 10.0 mi SW 3.5 mph - 0.00 in   Overcast
8:16 AM 73.4 °F - 69.8 °F 88% 30.06 in 8.0 mi WSW 6.9 mph - 0.02 in Rain Light Rain
8:53 AM 75.0 °F - 70.0 °F 84% 30.06 in 10.0 mi West 6.9 mph - 0.02 in   Overcast
9:53 AM 78.1 °F - 70.0 °F 76% 30.06 in 10.0 mi NNW 6.9 mph - N/A   Overcast
10:02 AM 78.8 °F - 69.8 °F 74% 30.06 in 10.0 mi NNE 6.9 mph - N/A   Overcast
10:14 AM 78.8 °F - 69.8 °F 74% 30.06 in 10.0 mi NNE 5.8 mph - N/A   Overcast
10:32 AM 78.8 °F - 69.8 °F 74% 30.06 in 10.0 mi NNE 5.8 mph - N/A   Overcast
10:53 AM 75.9 °F - 69.1 °F 79% 30.06 in 10.0 mi NNW 4.6 mph - 0.00 in Rain Light Rain
11:50 AM 77.0 °F - 69.8 °F 78% 30.05 in 10.0 mi NNW 9.2 mph - 0.00 in Rain Light Rain
11:53 AM 78.1 °F - 70.0 °F 76% 30.05 in 10.0 mi North 8.1 mph - 0.00 in Rain Light Rain
12:08 PM 80.6 °F 83.9 °F 69.8 °F 70% 30.05 in 10.0 mi NE 9.2 mph - N/A   Overcast
12:53 PM 81.0 °F 83.8 °F 68.0 °F 65% 30.03 in 10.0 mi ENE 10.4 mph - N/A   Mostly Cloudy
1:53 PM 80.1 °F 82.7 °F 68.0 °F 67% 30.02 in 10.0 mi NE 8.1 mph - N/A   Mostly Cloudy
2:53 PM 81.0 °F 83.0 °F 66.0 °F 60% 30.01 in 10.0 mi NNE 10.4 mph - N/A   Mostly Cloudy
3:53 PM 81.0 °F 83.3 °F 66.9 °F 62% 30.01 in 10.0 mi North 8.1 mph - N/A   Mostly Cloudy
4:53 PM 79.0 °F - 66.0 °F 64% 30.00 in 10.0 mi North 5.8 mph - N/A   Scattered Clouds
5:53 PM 77.0 °F - 69.1 °F 76% 30.01 in 10.0 mi ENE 10.4 mph - N/A   Overcast
6:02 PM 75.2 °F - 69.8 °F 83% 30.02 in 10.0 mi ENE 10.4 mph - N/A   Overcast
6:53 PM 75.0 °F - 68.0 °F 79% 30.03 in 10.0 mi NNW 3.5 mph - 0.00 in   Overcast
7:26 PM 73.4 °F - 69.8 °F 88% 30.04 in 10.0 mi NNW 10.4 mph - N/A   Overcast
7:36 PM 73.4 °F - 69.8 °F 88% 30.04 in 10.0 mi NNW 4.6 mph - N/A   Overcast
7:53 PM 73.0 °F - 68.0 °F 84% 30.04 in 10.0 mi NW 4.6 mph - N/A   Mostly Cloudy
8:53 PM 70.0 °F - 66.0 °F 87% 30.06 in 10.0 mi WSW 5.8 mph - N/A   Clear
9:53 PM 69.1 °F - 64.9 °F 87% 30.06 in 10.0 mi WSW 4.6 mph - N/A   Scattered Clouds
10:53 PM 70.0 °F - 66.0 °F 87% 30.06 in 8.0 mi Calm Calm - 0.00 in Rain Light Rain
11:53 PM 71.1 °F - 66.9 °F 87% 30.04 in 10.0 mi WSW 4.6 mph - 0.00 in   Mostly Cloudy